Location: Unspecified
(45.6635°N, 122.4424°W)
Time: 16:05:08
(UTC+00:00)

Resurs 1-4 Rocket - Visible Passes

Search period start: 19 October 2017 00:00
Search period end: 29 October 2017 00:00
Orbit: 801 x 813 km, 98.5° (Epoch: 19 October)

Date Brightness Start Highest point End Pass type
(mag) Time Alt. Az. Time Alt. Az. Time Alt. Az.
19 Oct 4.4 11:33:37 10° N 11:34:26 14° N 11:34:26 14° N visible
20 Oct 4.5 11:08:43 10° N 11:09:26 14° N 11:09:26 14° N visible
21 Oct 4.7 10:43:59 10° N 10:44:27 13° N 10:44:27 13° N visible
22 Oct 5.0 10:19:25 10° NNE 10:19:28 10° NNE 10:19:28 10° NNE visible
22 Oct 4.5 12:00:21 10° NNW 12:00:33 11° NNW 12:00:33 11° NNW visible
23 Oct 4.5 11:35:12 10° N 11:35:33 12° N 11:35:33 12° N visible
24 Oct 4.7 11:10:18 10° N 11:10:35 11° N 11:10:35 11° N visible
25 Oct 4.9 10:45:34 10° N 10:45:35 10° N 10:45:35 10° N visible
